Hourly Weather Allate

Today, 27 February, Saturday

Time Temperature Precipitation Wind Pressure Humidity
00:00 -1°C° 0 mm 1 mps 637 mmHg 68%
01:00 -1°C° 0 mm 1 mps 637 mmHg 67%
02:00 -2°C° 0 mm 1 mps 636 mmHg 66%
03:00 -2°C° 0 mm 1 mps 636 mmHg 64%
04:00 -2°C° 0 mm 1 mps 636 mmHg 63%
05:00 -2°C° 0 mm 1 mps 636 mmHg 62%
06:00 -2°C° 0 mm 1 mps 636 mmHg 61%
07:00 -1°C° 0 mm 1 mps 636 mmHg 58%
08:00 0°C° 0 mm 1 mps 636 mmHg 56%
09:00 +1°C° 0 mm 0 mps 637 mmHg 53%
10:00 +2°C° 0 mm 0 mps 636 mmHg 56%
11:00 +3°C° 0 mm 1 mps 636 mmHg 58%
12:00 +4°C° 0 mm 1 mps 636 mmHg 61%
13:00 +4°C° 0 mm 1 mps 636 mmHg 62%
14:00 +4°C° 0 mm 1 mps 635 mmHg 63%
15:00 +4°C° 0 mm 1 mps 635 mmHg 65%
16:00 +3°C° 0 mm 1 mps 634 mmHg 68%
17:00 +1°C° 0 mm 1 mps 634 mmHg 71%
18:00 0°C° 0 mm 1 mps 633 mmHg 74%
19:00 0°C° 0 mm 1 mps 633 mmHg 73%
20:00 -1°C° 0 mm 1 mps 633 mmHg 72%
21:00 -1°C° 0 mm 1 mps 633 mmHg 70%
22:00 -1°C° 0 mm 1 mps 633 mmHg 68%
23:00 -1°C° 0 mm 1 mps 632 mmHg 66%

Tomorrow, 28 February, Sunday

Time Temperature Precipitation Wind Pressure Humidity
00:00 -3°C° 0 mm 2 mps 632 mmHg 64%
01:00 -4°C° 0 mm 2 mps 632 mmHg 63%
02:00 -4°C° 0 mm 2 mps 632 mmHg 62%
03:00 -4°C° 0 mm 2 mps 632 mmHg 60%
04:00 -4°C° 0 mm 2 mps 632 mmHg 59%
05:00 -4°C° 0 mm 2 mps 632 mmHg 59%
06:00 -4°C° 0 mm 2 mps 632 mmHg 58%
07:00 -1°C° 0 mm 1 mps 632 mmHg 57%
08:00 0°C° 0 mm 1 mps 632 mmHg 56%
09:00 +2°C° 0 mm 1 mps 633 mmHg 55%
10:00 +2°C° 0 mm 1 mps 633 mmHg 59%
11:00 +3°C° 0 mm 1 mps 633 mmHg 62%
12:00 +3°C° 0 mm 2 mps 633 mmHg 65%
13:00 +3°C° 0 mm 2 mps 633 mmHg 71%
14:00 +3°C° 0 mm 2 mps 632 mmHg 77%
15:00 +2°C° 0 mm 2 mps 632 mmHg 82%
16:00 +1°C° 0 mm 2 mps 632 mmHg 86%
17:00 +1°C° 0 mm 1 mps 632 mmHg 90%
18:00 -1°C° 0 mm 1 mps 631 mmHg 94%
19:00 -1°C° 0.4 mm 1 mps 632 mmHg 93%
20:00 -1°C° 0.4 mm 1 mps 632 mmHg 92%
21:00 -1°C° 0.4 mm 1 mps 632 mmHg 91%
22:00 -1°C° 0.3 mm 1 mps 632 mmHg 91%
23:00 -2°C° 0.3 mm 1 mps 632 mmHg 91%

Day after tomorrow, 1 March, Monday

Time Temperature Precipitation Wind Pressure Humidity
00:00 -2°C° 0.3 mm 1 mps 632 mmHg 90%
01:00 -2°C° 0.4 mm 1 mps 633 mmHg 91%
02:00 -2°C° 0.4 mm 1 mps 633 mmHg 92%
03:00 -2°C° 0.4 mm 1 mps 633 mmHg 92%
04:00 -3°C° 0.7 mm 1 mps 633 mmHg 94%
05:00 -3°C° 0.7 mm 1 mps 634 mmHg 95%
06:00 -3°C° 0.7 mm 1 mps 634 mmHg 96%
07:00 -3°C° 0.6 mm 1 mps 635 mmHg 95%
08:00 -3°C° 0.6 mm 1 mps 635 mmHg 94%
09:00 -3°C° 0.6 mm 1 mps 635 mmHg 93%
10:00 -2°C° 0.4 mm 1 mps 636 mmHg 93%
11:00 -4°C° 0.4 mm 2 mps 636 mmHg 93%
12:00 -4°C° 0.4 mm 2 mps 636 mmHg 93%
13:00 -4°C° 0.4 mm 2 mps 636 mmHg 93%
14:00 -4°C° 0.4 mm 2 mps 636 mmHg 93%
15:00 -4°C° 0.4 mm 2 mps 636 mmHg 92%
16:00 -4°C° 0.3 mm 2 mps 636 mmHg 93%
17:00 -3°C° 0.3 mm 1 mps 637 mmHg 95%
18:00 -4°C° 0.3 mm 1 mps 637 mmHg 96%
19:00 -4°C° 0.1 mm 1 mps 637 mmHg 94%
20:00 -6°C° 0.1 mm 1 mps 637 mmHg 92%
21:00 -7°C° 0.1 mm 1 mps 637 mmHg 91%
22:00 -7°C° 0 mm 1 mps 637 mmHg 88%
23:00 -7°C° 0 mm 1 mps 637 mmHg 85%

2 March, Tuesday

Time Temperature Precipitation Wind Pressure Humidity
00:00 -8°C° 0 mm 1 mps 637 mmHg 82%
01:00 -8°C° 0 mm 1 mps 637 mmHg 80%
02:00 -8°C° 0 mm 1 mps 637 mmHg 79%
03:00 -8°C° 0 mm 1 mps 637 mmHg 77%
04:00 -9°C° 0 mm 1 mps 637 mmHg 76%
05:00 -9°C° 0 mm 1 mps 637 mmHg 75%
06:00 -9°C° 0 mm 1 mps 637 mmHg 75%
07:00 -8°C° 0 mm 1 mps 638 mmHg 73%
08:00 -7°C° 0 mm 1 mps 638 mmHg 72%
09:00 -5°C° 0 mm 0 mps 639 mmHg 71%
10:00 -4°C° 0 mm 1 mps 639 mmHg 73%
11:00 -3°C° 0 mm 1 mps 639 mmHg 74%
12:00 -2°C° 0 mm 1 mps 639 mmHg 76%
13:00 -2°C° 0 mm 1 mps 639 mmHg 76%
14:00 -2°C° 0 mm 1 mps 639 mmHg 77%
15:00 -1°C° 0 mm 1 mps 638 mmHg 77%
16:00 -3°C° 0 mm 1 mps 638 mmHg 80%
17:00 -4°C° 0 mm 1 mps 637 mmHg 83%
18:00 -6°C° 0 mm 1 mps 636 mmHg 86%
19:00 -6°C° 0 mm 1 mps 636 mmHg 81%
20:00 -8°C° 0 mm 2 mps 636 mmHg 76%
21:00 -8°C° 0 mm 2 mps 636 mmHg 71%
22:00 -8°C° 0 mm 2 mps 635 mmHg 68%
23:00 -8°C° 0 mm 2 mps 635 mmHg 65%

3 March, Wednesday

Time Temperature Precipitation Wind Pressure Humidity
00:00 -9°C° 0 mm 2 mps 635 mmHg 61%
01:00 -9°C° 0 mm 2 mps 634 mmHg 60%
02:00 -9°C° 0 mm 2 mps 634 mmHg 59%
03:00 -9°C° 0 mm 2 mps 633 mmHg 57%
04:00 -9°C° 0 mm 2 mps 633 mmHg 57%
05:00 -9°C° 0 mm 2 mps 633 mmHg 57%
06:00 -10°C° 0 mm 2 mps 632 mmHg 56%
07:00 -7°C° 0 mm 1 mps 633 mmHg 56%
08:00 -6°C° 0 mm 1 mps 633 mmHg 56%
09:00 -3°C° 0 mm 1 mps 634 mmHg 55%
10:00 -3°C° 0 mm 1 mps 634 mmHg 57%
11:00 -2°C° 0 mm 1 mps 634 mmHg 60%
12:00 -4°C° 0 mm 2 mps 634 mmHg 62%
13:00 -2°C° 0.1 mm 1 mps 633 mmHg 66%
14:00 -2°C° 0.1 mm 1 mps 633 mmHg 69%
15:00 -2°C° 0.1 mm 1 mps 633 mmHg 73%
16:00 -3°C° 0.1 mm 1 mps 633 mmHg 77%
17:00 -3°C° 0.1 mm 1 mps 633 mmHg 81%
18:00 -4°C° 0.1 mm 1 mps 633 mmHg 84%
19:00 -4°C° 0.4 mm 1 mps 633 mmHg 87%
20:00 -6°C° 0.4 mm 1 mps 633 mmHg 89%
21:00 -6°C° 0.4 mm 1 mps 634 mmHg 92%
22:00 -7°C° 0.6 mm 1 mps 634 mmHg 90%
23:00 -7°C° 0.6 mm 1 mps 634 mmHg 88%

4 March, Thursday

Time Temperature Precipitation Wind Pressure Humidity
00:00 -8°C° 0.6 mm 1 mps 634 mmHg 86%
01:00 -8°C° 0.1 mm 1 mps 634 mmHg 86%
02:00 -8°C° 0.1 mm 1 mps 634 mmHg 87%
03:00 -9°C° 0.1 mm 1 mps 634 mmHg 87%
04:00 -9°C° 0 mm 1 mps 634 mmHg 86%
05:00 -12°C° 0 mm 2 mps 634 mmHg 84%
06:00 -13°C° 0 mm 2 mps 634 mmHg 83%
07:00 -10°C° 0 mm 2 mps 635 mmHg 78%
08:00 -8°C° 0 mm 1 mps 636 mmHg 74%
09:00 -7°C° 0 mm 1 mps 637 mmHg 69%
10:00 -6°C° 0 mm 1 mps 637 mmHg 69%
11:00 -4°C° 0 mm 1 mps 637 mmHg 68%
12:00 -5°C° 0 mm 2 mps 638 mmHg 68%
13:00 -5°C° 0 mm 2 mps 638 mmHg 68%
14:00 -3°C° 0 mm 1 mps 638 mmHg 67%
15:00 -3°C° 0 mm 1 mps 638 mmHg 67%
16:00 -4°C° 0 mm 1 mps 637 mmHg 73%
17:00 -6°C° 0 mm 1 mps 637 mmHg 78%
18:00 -8°C° 0 mm 1 mps 637 mmHg 84%
19:00 -8°C° 0 mm 1 mps 637 mmHg 82%
20:00 -8°C° 0 mm 1 mps 637 mmHg 80%
21:00 -9°C° 0 mm 1 mps 637 mmHg 78%
22:00 -10°C° 0 mm 2 mps 637 mmHg 74%
23:00 -10°C° 0 mm 2 mps 637 mmHg 69%
Show more